Istanbul, Turkey

7:31 AM +03 on November 24, 2017 (GMT +0300)
Ataturk

Weather History for LTBA - December, 2013

Change the Weather History Date:

Sunday, December 8, 2013

  Actual Average Record
Temperature  
Mean Temperature 40 °F -  
Max Temperature 46 °F 48 °F 60 °F (2005)
Min Temperature 34 °F 40 °F 34 °F (2013)
Degree Days  
Heating Degree Days 25    
Moisture  
Dew Point 20 °F    
Average Humidity 42    
Maximum Humidity 57    
Minimum Humidity 17    
Precipitation  
Precipitation 0.00 in - - ()
Sea Level Pressure  
Sea Level Pressure 30.31 in    
Wind  
Wind Speed 9 mph ()    
Max Wind Speed 18 mph    
Max Gust Speed -    
Visibility 6.2 miles    
Events      
Averages and records for this station are not official NWS values.
T = Trace of Precipitation, MM = Missing Value Source: Averaged Metar Reports

Daily Weather History Graph

Daily Weather History Graph

Search for Another Location

Airport or City:

Trip Planner

Search our weather history database for the weather conditions in past years. The results will help you decide how hot, cold, wet, or windy it might be!

Date:

Astronomy

Dec. 08, 2013 Rise Set
Actual Time 7:16 AM EET 4:36 PM EET
Civil Twilight 6:45 AM EET 5:07 PM EET
Nautical Twilight 6:11 AM EET 5:41 PM EET
Astronomical Twilight 5:38 AM EET 6:14 PM EET
Moon 11:23 AM EET (12/8) 11:05 PM EET (12/8)
Length of Visible Light 10h 21m
Length of Day
9h 19m
Waxing Crescent, 36% of the Moon is Illuminated
Dec 8
Waxing Crescent
Dec 9
First Quarter
Dec 17
Full
Dec 25
Last Quarter
Jan 1
New

Hourly Weather History & Observations

Time (EET) Temp. Windchill Dew Point Humidity Pressure Visibility Wind Dir Wind Speed Gust Speed Precip Events Conditions
12:20 AM 35.6 °F 28.0 °F 19.4 °F 52% 30.21 in - WNW 10.4 mph - N/A   Clear
12:50 AM 35.6 °F 28.6 °F 21.2 °F 56% 30.21 in - WNW 9.2 mph - N/A   Clear
1:20 AM 35.6 °F 26.2 °F 19.4 °F 52% 30.21 in - WNW 15.0 mph - N/A   Clear
1:50 AM 35.6 °F 27.5 °F 21.2 °F 56% 30.21 in - WNW 11.5 mph - N/A   Clear
2:00 AM 36 °F - 19 °F 37% 30.24 in 7 mi WNW 11.5 mph - -  
2:20 AM 35.6 °F 25.9 °F 21.2 °F 56% 30.24 in - WNW 16.1 mph - N/A   Clear
2:50 AM 35.6 °F 26.2 °F 21.2 °F 56% 30.24 in - WNW 15.0 mph - N/A   Clear
3:20 AM 35.6 °F 25.2 °F 21.2 °F 56% 30.24 in - WNW 18.4 mph - N/A   Clear
3:50 AM 35.6 °F 25.9 °F 19.4 °F 52% 30.24 in - WNW 16.1 mph - N/A   Clear
4:20 AM 35.6 °F 26.2 °F 19.4 °F 52% 30.24 in - WNW 15.0 mph - N/A   Clear
4:50 AM 35.6 °F 28.0 °F 19.4 °F 52% 30.27 in - WNW 10.4 mph - N/A   Clear
5:00 AM 35 °F - 18 °F 37% 30.28 in 6 mi WNW 10.4 mph - -  
5:20 AM 35.6 °F 29.9 °F 19.4 °F 52% 30.27 in - West 6.9 mph - N/A   Clear
5:50 AM 35.6 °F 30.7 °F 21.2 °F 56% 30.27 in - West 5.8 mph - N/A   Clear
6:20 AM 35.6 °F 29.2 °F 19.4 °F 52% 30.27 in - West 8.1 mph - N/A   Clear
6:50 AM 35.6 °F 29.2 °F 19.4 °F 52% 30.27 in - WNW 8.1 mph - N/A   Clear
7:20 AM 35.6 °F 29.9 °F 21.2 °F 56% 30.30 in - WNW 6.9 mph - N/A   Clear
7:50 AM 37.4 °F 31.4 °F 19.4 °F 48% 30.30 in - WNW 8.1 mph - N/A   Clear
8:00 AM 36 °F - 17 °F 33% 30.31 in 6 mi WNW 8.1 mph - -  
8:20 AM 37.4 °F 31.4 °F 19.4 °F 48% 30.30 in - WNW 8.1 mph - N/A   Clear
8:50 AM 37.4 °F 31.4 °F 17.6 °F 45% 30.30 in 6.2 mi WNW 8.1 mph - N/A   Partly Cloudy
9:20 AM 39.2 °F 32.0 °F 19.4 °F 45% 30.33 in 6.2 mi NW 11.5 mph - N/A   Partly Cloudy
9:50 AM 39.2 °F 33.0 °F 19.4 °F 45% 30.33 in - NW 9.2 mph - N/A   Clear
10:20 AM 42.8 °F 36.6 °F 19.4 °F 39% 30.33 in - West 11.5 mph - N/A   Clear
10:50 AM 42.8 °F 37.0 °F 19.4 °F 39% 30.33 in - West 10.4 mph - N/A   Clear
11:00 AM 42 °F - 18 °F 25% 30.35 in 6 mi West 10.4 mph - -  
11:20 AM 42.8 °F 37.0 °F 15.8 °F 34% 30.33 in - West 10.4 mph - N/A   Clear
11:50 AM 44.6 °F 38.8 °F 15.8 °F 31% 30.30 in 6.2 mi West 11.5 mph - N/A   Partly Cloudy
12:20 PM 44.6 °F 38.1 °F 12.2 °F 27% 30.30 in 6.2 mi West 13.8 mph - N/A   Partly Cloudy
12:50 PM 44.6 °F 38.4 °F 15.8 °F 31% 30.30 in 6.2 mi West 12.7 mph - N/A   Partly Cloudy
1:20 PM 44.6 °F 38.1 °F 15.8 °F 31% 30.30 in 6.2 mi WNW 13.8 mph - N/A   Partly Cloudy
1:50 PM 44.6 °F 38.8 °F 15.8 °F 31% 30.30 in 6.2 mi West 11.5 mph - N/A   Partly Cloudy
2:00 PM 45 °F - 14 °F 17% 30.32 in 6 mi West 11.5 mph - -   Scattered Clouds
2:20 PM 44.6 °F 38.4 °F 15.8 °F 31% 30.30 in 6.2 mi West 12.7 mph - N/A   Partly Cloudy
2:50 PM 44.6 °F 38.8 °F 15.8 °F 31% 30.30 in 6.2 mi West 11.5 mph - N/A   Partly Cloudy
3:20 PM 44.6 °F 39.7 °F 15.8 °F 31% 30.33 in 6.2 mi West 9.2 mph - N/A   Partly Cloudy
3:50 PM 42.8 °F 37.5 °F 17.6 °F 36% 30.33 in 6.2 mi West 9.2 mph - N/A   Partly Cloudy
4:20 PM 42.8 °F 40.1 °F 17.6 °F 36% 30.33 in 6.2 mi West 4.6 mph - N/A   Partly Cloudy
4:50 PM 42.8 °F 39.3 °F 17.6 °F 36% 30.33 in 6.2 mi WNW 5.8 mph - N/A   Partly Cloudy
5:00 PM 42 °F - 18 °F 25% 30.35 in 6 mi WNW 5.8 mph - -   Scattered Clouds
5:20 PM 42.8 °F 41.1 °F 17.6 °F 36% 30.33 in 6.2 mi West 3.5 mph - N/A   Partly Cloudy
5:50 PM 42.8 °F 41.1 °F 17.6 °F 36% 30.33 in 6.2 mi West 3.5 mph - N/A   Partly Cloudy
6:20 PM 42.8 °F - 17.6 °F 36% 30.33 in 6.2 mi Variable 2.3 mph - N/A   Scattered Clouds
6:50 PM 42.8 °F 41.1 °F 19.4 °F 39% 30.33 in 6.2 mi SW 3.5 mph - N/A   Scattered Clouds
7:20 PM 44.6 °F 42.2 °F 23.0 °F 43% 30.33 in 6.2 mi WSW 4.6 mph - N/A   Scattered Clouds
7:50 PM 44.6 °F 42.2 °F 24.8 °F 46% 30.36 in - West 4.6 mph - N/A   Clear
8:00 PM 45 °F - 24 °F 30% 30.37 in 6 mi West 4.6 mph - -   Mostly Cloudy
8:20 PM 46.4 °F 41.5 °F 24.8 °F 43% 30.36 in - West 10.4 mph - N/A   Clear
8:50 PM 44.6 °F 38.8 °F 23.0 °F 43% 30.36 in - WNW 11.5 mph - N/A   Clear
9:20 PM 44.6 °F 40.2 °F 24.8 °F 46% 30.36 in - WNW 8.1 mph - N/A   Clear
9:50 PM 44.6 °F 41.4 °F 24.8 °F 46% 30.36 in 6.2 mi WNW 5.8 mph - N/A   Scattered Clouds
10:20 PM 44.6 °F 41.4 °F 24.8 °F 46% 30.36 in 6.2 mi WNW 5.8 mph - N/A   Scattered Clouds
10:50 PM 44.6 °F 42.2 °F 26.6 °F 49% 30.39 in 6.2 mi WNW 4.6 mph - N/A   Scattered Clouds
11:00 PM 44 °F - 27 °F 38% 30.40 in 6 mi WNW 4.6 mph - -   Partly Cloudy
11:20 PM 42.8 °F 39.3 °F 28.4 °F 57% 30.39 in 6.2 mi NW 5.8 mph - N/A   Scattered Clouds
11:50 PM 42.8 °F 39.3 °F 26.6 °F 53% 30.39 in 6.2 mi NW 5.8 mph - N/A   Scattered Clouds